Flag for Austria Weather past 2 weeks in Neusiedl am See, Burgenland, Austria

Now
43 °F

Quite cool.


Feels Like: 40 °F
Forecast: 36 / 50 °F
Wind: 5 mph from East

Location: Eisenstadt

Current Time: Feb 27, 2015 at 6:42:57 PM

Latest Report: Feb 27, 2015 at 6:00 PM


Visibility: N/A

Pressure: 29.92 "Hg

Humidity: 76%

Dew point: 36 °F

Location of Neusiedl am SeeLocation

Historic Weather in Neusiedl am See — Graph

°F

Neusiedl am See temperature yesterday

Maximum temperature yesterday: 45 °F (at 3:00 PM)
Minimum temperature yesterday: 35 °F (at 11:00 PM)
Average temperature yesterday: 41 °F

Past Weeks' High & Low Weather Summary

 TemperatureHumidityPressure
High57 °F (Feb 21, 3:00 PM)100% (Feb 20, 10:00 AM)30.78 "Hg (Feb 20, 10:00 AM)
Low27 °F (Feb 20, 5:00 AM)30% (Feb 21, 12:00 PM)29.57 "Hg (Feb 21, 3:00 PM)
Average38 °F77%30.09 "Hg
* Reported Feb 12 5:00 PM — Feb 27 5:00 PM, Neusiedl am See, Weather by CustomWeather, © 2015

Note: Actual official high and low records may vary slightly from our data, if they occured in-between our weather recording intervals... More about our weather records

Advertising

Neusiedl am See weather history for previous 24 hours

 ConditionsComfort  
Time TempWeatherWind HumidityBarometerVisibility
5:00 PM
Fri, Feb 27
46 °FCool.6 mph69%29.90 "HgN/A
4:00 PM48 °FSunny.8 mph65%29.88 "Hg7 mi
3:00 PM49 °FCool.8 mph58%29.88 "HgN/A
2:00 PM50 °FCool.8 mph59%29.87 "HgN/A
1:00 PM50 °FSunny.7 mph58%29.88 "Hg6 mi
12:00 PM49 °FCool.8 mph62%29.91 "HgN/A
11:00 AM47 °FCool.7 mph64%29.92 "HgN/A
10:00 AM40 °FFog.3 mph78%29.93 "Hg2 mi
9:00 AM36 °FChilly.2 mph85%29.94 "HgN/A
8:00 AM34 °FChilly.No wind90%29.96 "HgN/A
7:00 AM31 °FFog.1 mph94%29.96 "Hg2 mi
6:00 AM31 °FClear.2 mph94%29.96 "Hg9 mi
5:00 AM31 °FClear.2 mph94%29.96 "Hg9 mi
2:00 AM32 °FChilly.2 mph91%30.03 "HgN/A
1:00 AM33 °FClear.3 mph89%30.04 "Hg9 mi
12:00 AM33 °FChilly.1 mph89%30.04 "HgN/A
11:00 PM
Thu, Feb 26
35 °FChilly.2 mph86%30.06 "HgN/A
10:00 PM36 °FClear.2 mph85%30.07 "Hg9 mi
9:00 PM36 °FChilly.1 mph84%30.10 "HgN/A
8:00 PM38 °FChilly.1 mph79%30.10 "HgN/A
7:00 PM41 °FOvercast.1 mph72%30.08 "Hg9 mi
6:00 PM42 °FQuite cool.1 mph69%30.09 "HgN/A
Weather by CustomWeather, © 2015

See weather overviewHow to use our weather pages